This is the latest recevied weather packets stored in our database for station/object N5PA. If no packets are shown the sender has not sent any weather packets the latest 10 day(s).
| Time | Temp. | Humidity | Pressure | Rain* | Wind** | Luminosity | Snow |
|---|---|---|---|---|---|---|---|
| 1777776009 | 12.78° C | 74% | 1018.8 hPa | 0 mm | - | 1042 W/m² | - |
| 1777775709 | 12.78° C | 73% | 1018.8 hPa | 0 mm | - | 1044 W/m² | - |
| 1777775409 | 12.78° C | 72% | 1018.7 hPa | 0 mm | - | 1046 W/m² | - |
| 1777775109 | 12.78° C | 72% | 1018.6 hPa | 0 mm | - | 1044 W/m² | - |
| 1777774809 | 12.78° C | 72% | 1018.6 hPa | 0 mm | - | 1048 W/m² | - |
| 1777774510 | 12.78° C | 72% | 1018.6 hPa | 0 mm | - | 1042 W/m² | - |
| 1777774209 | 13.33° C | 73% | 1018.4 hPa | 0 mm | - | 1042 W/m² | - |
| 1777773907 | 13.33° C | 72% | 1018.3 hPa | 0 mm | - | 1048 W/m² | - |
| 1777773610 | 13.89° C | 71% | 1018.3 hPa | 0 mm | - | 1035 W/m² | - |
| 1777773309 | 13.89° C | 70% | 1018.3 hPa | 0 mm | - | 1042 W/m² | - |
| 1777773008 | 14.44° C | 69% | 1018.2 hPa | 0 mm | - | 1046 W/m² | - |
| 1777772709 | 14.44° C | 69% | 1018.2 hPa | 0 mm | - | 1041 W/m² | - |
| 1777772409 | 14.44° C | 68% | 1018.2 hPa | 0 mm | - | 1039 W/m² | - |
| 1777772109 | 15° C | 67% | 1018.2 hPa | 0 mm | - | 1046 W/m² | - |
| 1777771809 | 15° C | 65% | 1018.1 hPa | 0 mm | - | 1044 W/m² | - |
| 1777771509 | 15.56° C | 64% | 1018 hPa | 0 mm | - | 1041 W/m² | - |
| 1777771209 | 15.56° C | 63% | 1018 hPa | 0 mm | - | 1039 W/m² | - |
| 1777770909 | 15.56° C | 62% | 1017.9 hPa | 0 mm | - | 1044 W/m² | - |
| 1777770608 | 16.11° C | 62% | 1017.9 hPa | 0 mm | - | 1039 W/m² | - |
| 1777770310 | 16.67° C | 60% | 1017.8 hPa | 0 mm | - | 1039 W/m² | - |
| 1777770008 | 16.67° C | 59% | 1017.7 hPa | 0 mm | - | 1041 W/m² | - |
| 1777769710 | 17.22° C | 57% | 1017.6 hPa | 0 mm | - | 1039 W/m² | - |
| 1777769409 | 17.22° C | 55% | 1017.6 hPa | 0 mm | - | 1042 W/m² | - |
| 1777769109 | 17.78° C | 53% | 1017.5 hPa | 0 mm | - | 1042 W/m² | - |
| 1777768809 | 18.33° C | 51% | 1017.5 hPa | 0 mm | - | 1042 W/m² | - |
* Rain latest hour (hover to see other rain measurements)
** Current wind speed in m/s (hover to see current wind gust speed)